Total_Precipitation_Accumulation
0.00 0.00 0.00 0.00 0.00 0.00 0.00 0.00 0.00 0.00 0.00 0.00 0.01 0.03 0.06 0.07 0.08 0.10 0.10 0.12 0.15 0.15 0.18 0.22 0.24 0.26 0.33 0.35 0.39 0.38 0.34 0.37 0.38 0.09 0.02 0.04 0.12 0.20 0.19 0.14 0.14 0.13 0.11
0.00 0.00 0.00 0.00 0.00 0.00 0.00 0.00 0.00 0.00 0.00 0.00 0.02 0.05 0.09 0.11 0.11 0.14 0.15 0.15 0.18 0.19 0.21 0.25 0.28 0.31 0.36 0.41 0.48 0.49 0.41 0.36 0.40 0.25 0.06 0.04 0.12 0.23 0.26 0.21 0.17 0.15 0.11
0.00 0.00 0.00 0.00 0.00 0.00 0.00 0.00 0.00 0.00 0.00 0.00 0.02 0.07 0.15 0.21 0.19 0.16 0.20 0.21 0.20 0.22 0.25 0.31 0.35 0.39 0.38 0.41 0.51 0.56 0.50 0.42 0.41 0.37 0.17 0.07 0.11 0.22 0.33 0.30 0.26 0.24 0.18
0.00 0.00 0.00 0.00 0.00 0.00 0.00 0.00 0.00 0.00 0.00 0.01 0.02 0.06 0.17 0.30 0.33 0.34 0.37 0.32 0.26 0.21 0.19 0.24 0.36 0.50 0.55 0.59 0.60 0.58 0.60 0.59 0.54 0.48 0.32 0.18 0.16 0.23 0.39 0.45 0.38 0.33 0.28
0.00 0.00 0.00 0.00 0.00 0.00 0.00 0.00 0.00 0.00 0.00 0.01 0.01 0.03 0.14 0.40 0.65 0.82 0.74 0.47 0.31 0.23 0.17 0.20 0.31 0.52 0.69 0.87 0.93 0.82 0.80 0.86 0.80 0.72 0.59 0.43 0.32 0.35 0.45 0.49 0.54 0.46 0.41
0.00 0.00 0.00 0.00 0.00 0.00 0.00 0.00 0.00 0.00 0.01 0.01 0.01 0.02 0.08 0.36 0.73 0.96 0.70 0.37 0.26 0.22 0.21 0.20 0.28 0.48 0.63 0.72 0.84 0.87 0.92 1.07 1.12 1.03 0.88 0.69 0.49 0.40 0.44 0.55 0.67 0.70 0.60
0.00 0.00 0.00 0.00 0.00 0.00 0.00 0.00 0.00 0.01 0.01 0.01 0.01 0.02 0.03 0.19 0.56 0.83 0.58 0.30 0.22 0.20 0.20 0.19 0.23 0.35 0.47 0.55 0.59 0.62 0.67 0.82 1.04 1.15 1.09 0.81 0.64 0.52 0.60 0.69 0.68 0.74 0.66
0.00 0.00 0.00 0.00 0.00 0.00 0.00 0.00 0.01 0.01 0.01 0.01 0.02 0.02 0.02 0.09 0.43 0.72 0.53 0.26 0.18 0.17 0.18 0.16 0.14 0.21 0.35 0.52 0.60 0.56 0.53 0.61 0.85 1.07 1.24 1.07 0.87 0.81 0.92 1.00 0.95 0.86 0.76
0.00 0.00 0.00 0.00 0.00 0.00 0.00 0.01 0.01 0.01 0.02 0.02 0.02 0.02 0.02 0.04 0.28 0.68 0.55 0.25 0.17 0.15 0.17 0.15 0.11 0.13 0.27 0.44 0.48 0.44 0.39 0.46 0.58 0.79 0.91 0.91 0.86 0.94 1.11 1.37 1.38 1.22 1.03
0.00 0.00 0.00 0.00 0.00 0.00 0.01 0.01 0.01 0.01 0.02 0.02 0.02 0.02 0.02 0.02 0.15 0.56 0.63 0.28 0.17 0.13 0.14 0.14 0.16 0.20 0.28 0.35 0.35 0.38 0.45 0.44 0.41 0.44 0.47 0.49 0.55 0.66 0.95 1.35 1.54 1.43 1.20
0.00 0.00 0.00 0.00 0.00 0.01 0.01 0.01 0.02 0.02 0.02 0.02 0.02 0.02 0.02 0.02 0.06 0.34 0.61 0.40 0.24 0.18 0.18 0.18 0.14 0.20 0.25 0.26 0.29 0.34 0.48 0.42 0.34 0.37 0.38 0.37 0.39 0.49 0.68 0.98 1.36 1.56 1.44
0.00 0.00 0.00 0.00 0.00 0.01 0.01 0.02 0.02 0.03 0.03 0.03 0.04 0.03 0.02 0.02 0.07 0.24 0.39 0.39 0.33 0.21 0.19 0.16 0.12 0.15 0.18 0.22 0.25 0.31 0.34 0.35 0.36 0.35 0.32 0.32 0.36 0.44 0.56 0.73 0.98 1.26 1.39
0.00 0.00 0.00 0.00 0.00 0.01 0.02 0.03 0.03 0.04 0.06 0.07 0.07 0.06 0.03 0.03 0.10 0.24 0.22 0.20 0.25 0.24 0.26 0.24 0.15 0.16 0.16 0.15 0.16 0.22 0.25 0.27 0.34 0.36 0.31 0.28 0.33 0.43 0.49 0.57 0.67 0.89 1.10
0.00 0.00 0.00 0.00 0.01 0.02 0.03 0.04 0.05 0.08 0.16 0.16 0.14 0.10 0.08 0.09 0.23 0.35 0.21 0.12 0.16 0.24 0.27 0.20 0.15 0.14 0.12 0.09 0.08 0.10 0.13 0.18 0.26 0.30 0.28 0.25 0.25 0.30 0.40 0.52 0.61 0.72 0.92
0.00 0.00 0.00 0.01 0.02 0.03 0.03 0.04 0.06 0.09 0.22 0.28 0.22 0.21 0.23 0.31 0.39 0.40 0.29 0.23 0.24 0.29 0.30 0.27 0.20 0.16 0.15 0.12 0.09 0.07 0.07 0.10 0.16 0.20 0.23 0.25 0.26 0.29 0.34 0.43 0.60 0.70 0.83
0.00 0.01 0.01 0.02 0.02 0.03 0.04 0.04 0.05 0.07 0.12 0.13 0.14 0.20 0.21 0.31 0.33 0.27 0.25 0.22 0.24 0.26 0.30 0.29 0.19 0.14 0.14 0.13 0.11 0.09 0.07 0.08 0.09 0.13 0.18 0.23 0.28 0.32 0.34 0.37 0.51 0.66 0.79
0.01 0.01 0.02 0.02 0.03 0.04 0.05 0.07 0.08 0.06 0.06 0.06 0.07 0.11 0.18 0.23 0.22 0.20 0.20 0.18 0.19 0.21 0.25 0.19 0.14 0.12 0.11 0.11 0.11 0.10 0.08 0.06 0.08 0.11 0.14 0.18 0.22 0.28 0.32 0.35 0.43 0.56 0.69
0.01 0.01 0.03 0.03 0.05 0.06 0.08 0.09 0.11 0.12 0.11 0.06 0.04 0.06 0.12 0.16 0.17 0.16 0.17 0.19 0.18 0.15 0.16 0.15 0.13 0.11 0.11 0.11 0.11 0.10 0.09 0.08 0.08 0.09 0.10 0.12 0.16 0.22 0.28 0.32 0.39 0.51 0.62
0.01 0.02 0.03 0.04 0.04 0.06 0.07 0.09 0.11 0.12 0.12 0.09 0.07 0.06 0.09 0.11 0.12 0.13 0.16 0.21 0.19 0.14 0.12 0.12 0.12 0.13 0.13 0.12 0.11 0.10 0.10 0.09 0.07 0.07 0.08 0.09 0.11 0.17 0.23 0.26 0.34 0.42 0.52
0.01 0.03 0.04 0.04 0.05 0.07 0.09 0.12 0.14 0.15 0.15 0.13 0.11 0.12 0.19 0.22 0.20 0.15 0.16 0.17 0.17 0.14 0.12 0.13 0.12 0.13 0.14 0.13 0.12 0.11 0.10 0.08 0.06 0.07 0.06 0.06 0.08 0.12 0.18 0.23 0.29 0.37 0.44
0.01 0.02 0.05 0.06 0.07 0.10 0.13 0.16 0.18 0.20 0.19 0.16 0.12 0.13 0.28 0.34 0.25 0.17 0.16 0.16 0.17 0.17 0.16 0.15 0.14 0.13 0.13 0.13 0.13 0.11 0.10 0.07 0.06 0.06 0.06 0.06 0.06 0.09 0.12 0.18 0.25 0.32 0.39
0.02 0.03 0.05 0.08 0.11 0.13 0.15 0.16 0.19 0.20 0.19 0.18 0.14 0.12 0.17 0.21 0.20 0.19 0.17 0.15 0.15 0.16 0.17 0.18 0.17 0.15 0.16 0.17 0.16 0.14 0.10 0.07 0.06 0.06 0.07 0.06 0.06 0.07 0.09 0.14 0.19 0.27 0.34
0.04 0.07 0.09 0.10 0.12 0.14 0.17 0.16 0.18 0.20 0.20 0.18 0.17 0.16 0.16 0.18 0.18 0.18 0.18 0.16 0.15 0.14 0.15 0.17 0.18 0.16 0.15 0.16 0.15 0.16 0.14 0.09 0.07 0.09 0.10 0.09 0.07 0.07 0.08 0.11 0.16 0.23 0.31
0.07 0.11 0.13 0.14 0.15 0.18 0.20 0.20 0.19 0.19 0.20 0.20 0.18 0.17 0.17 0.18 0.17 0.16 0.15 0.15 0.16 0.15 0.16 0.18 0.18 0.17 0.17 0.17 0.14 0.12 0.11 0.11 0.12 0.14 0.13 0.13 0.11 0.09 0.09 0.12 0.14 0.19 0.27
0.10 0.12 0.15 0.18 0.21 0.23 0.24 0.22 0.20 0.20 0.20 0.20 0.19 0.18 0.17 0.17 0.16 0.14 0.13 0.14 0.15 0.14 0.14 0.16 0.18 0.18 0.18 0.16 0.15 0.13 0.11 0.13 0.17 0.21 0.20 0.17 0.13 0.11 0.11 0.13 0.14 0.17 0.22
0.11 0.14 0.17 0.21 0.25 0.26 0.27 0.27 0.24 0.22 0.22 0.21 0.19 0.19 0.19 0.18 0.16 0.14 0.14 0.15 0.16 0.15 0.14 0.14 0.16 0.18 0.18 0.17 0.15 0.13 0.13 0.16 0.17 0.16 0.17 0.17 0.14 0.11 0.11 0.13 0.14 0.17 0.22